EW1613 Weather Reports


Display with metric or nautical units.
time (UTC)temp
F
wind
direction
speed
MPH
gust
MPH
rain 1hr
in
rain 24hr
in
rain mn
in
humidity
%
barometer
mb
20260505124930 60 58 4.0 8.0 0.00 0.24 0.05 80 1014.6
20260505124448 60 50 3.0 6.0 0.00 0.24 0.05 80 1014.6
20260505123956 60 51 2.0 6.0 0.00 0.24 0.05 81 1014.6
20260505123448 60 57 2.0 10.0 0.00 0.24 0.05 81 1014.6
20260505122945 61 57 4.0 10.0 0.00 0.24 0.05 81 1014.6
20260505122433 61 49 3.0 5.0 0.00 0.24 0.05 82 1014.7
20260505121947 61 59 3.0 6.0 0.00 0.24 0.05 82 1014.7
20260505121442 61 89 3.0 6.0 0.00 0.24 0.05 82 1014.7
20260505120951 61 82 2.0 6.0 0.00 0.24 0.05 82 1014.7
20260505120507 61 93 1.0 5.0 0.00 0.24 0.05 82 1014.7
20260505115942 61 90 2.0 5.0 0.00 0.24 0.05 81 1014.6
20260505115435 61 66 3.0 6.0 0.00 0.24 0.05 80 1014.7
20260505115008 61 58 2.0 6.0 0.00 0.24 0.05 80 1014.8
20260505114437 61 66 2.0 4.0 0.00 0.24 0.05 80 1014.8
20260505113933 61 84 2.0 5.0 0.00 0.24 0.05 80 1014.9
20260505113436 61 72 3.0 5.0 0.00 0.24 0.05 80 1014.8
20260505112950 61 59 2.0 6.0 0.00 0.24 0.05 79 1014.8
20260505112445 61 41 2.0 6.0 0.00 0.24 0.05 79 1014.8
20260505111955 61 58 3.0 5.0 0.04 0.24 0.05 80 1014.7
20260505111449 61 79 2.0 5.0 0.04 0.24 0.05 81 1014.7
20260505110945 61 98 1.0 4.0 0.04 0.24 0.05 82 1014.6
20260505110433 61 94 0.0 4.0 0.04 0.24 0.05 82 1014.7
20260505101932 61 80 2.0 6.0 0.12 0.20 0.04 83 1015.1
20260505101448 61 88 2.0 5.0 0.12 0.20 0.04 83 1015.1
20260505100945 61 82 1.0 3.0 0.12 0.20 0.04 81 1015.1
20260505100433 61 74 0.0 3.0 0.12 0.20 0.04 81 1015.2
20260505100004 61 72 1.0 3.0 0.12 0.20 0.04 80 1015.1
20260505095442 61 72 0.0 1.0 0.12 0.16 0.03 79 1015.1
20260505094939 61 72 0.0 2.0 0.12 0.16 0.03 78 1015.1
20260505094447 62 72 1.0 2.0 0.12 0.12 0.02 76 1015.1
20260505093943 62 72 0.0 3.0 0.12 0.12 0.02 77 1015.0
20260505093432 62 72 0.0 3.0 0.12 0.12 0.02 76 1014.9
20260505092946 62 67 1.0 3.0 0.08 0.08 0.02 76 1014.9
20260505092442 62 66 1.0 3.0 0.08 0.08 0.02 76 1014.9
20260505091932 62 67 0.0 2.0 0.08 0.08 0.02 77 1014.9
20260505091449 62 67 0.0 2.0 0.08 0.08 0.02 76 1014.9
20260505091006 62 67 2.0 2.0 0.08 0.08 0.02 74 1014.9
20260505090454 63 66 0.0 1.0 0.08 0.08 0.02 74 1014.9
20260505085949 63 66 0.0 0.0 0.04 0.04 0.01 74 1014.9
20260505085505 63 66 0.0 0.0 0.04 0.04 0.01 73 1014.9
20260505085001 62 66 0.0 0.0 0.04 0.04 0.01 72 1015.0
20260505084455 62 66 0.0 1.0 0.00 0.00 0.00 73 1015.0
20260505083942 62 66 0.0 4.0 0.00 0.00 0.00 72 1014.9
20260505083439 62 66 1.0 5.0 0.00 0.00 0.00 72 1014.8
20260505082950 62 95 2.0 5.0 0.00 0.00 0.00 73 1014.8
20260505082443 62 103 2.0 4.0 0.00 0.00 0.00 76 1014.9
20260505081932 62 87 1.0 3.0 0.00 0.00 0.00 77 1014.8
20260505081447 62 90 2.0 3.0 0.00 0.00 0.00 77 1014.9
20260505080936 62 84 1.0 3.0 0.00 0.00 0.00 79 1014.9
20260505080433 62 91 1.0 3.0 0.00 0.00 0.00 80 1015.0
20260505075942 62 84 1.0 3.0 0.00 0.00 0.00 81 1015.0
20260505075430 62 61 1.0 3.0 0.00 0.00 0.00 81 1014.9
20260505074947 62 131 1.0 3.0 0.00 0.00 0.00 83 1014.9
20260505074442 62 134 1.0 3.0 0.00 0.00 0.00 84 1015.0
20260505073948 62 138 0.0 2.0 0.00 0.00 0.00 85 1015.0
20260505073437 62 155 0.0 3.0 0.00 0.00 0.00 86 1014.9
20260505072953 62 155 0.0 5.0 0.00 0.00 0.00 86 1014.9
20260505072448 62 155 2.0 7.0 0.00 0.00 0.00 87 1014.8
20260505071938 62 101 2.0 7.0 0.00 0.00 0.00 88 1014.7
20260505071452 62 96 2.0 6.0 0.00 0.00 0.00 88 1014.7
20260505070942 62 98 2.0 6.0 0.00 0.00 0.00 88 1014.7
20260505070440 62 97 1.0 3.0 0.00 0.00 0.00 88 1014.7
20260505065954 62 94 0.0 4.0 0.00 0.00 0.00 88 1014.6
20260505065442 62 87 2.0 6.0 0.00 0.00 0.00 88 1014.6
20260505064930 62 88 2.0 5.0 0.00 0.00 0.00 88 1014.5
20260505064446 62 97 2.0 7.0 0.00 0.00 0.00 88 1014.4
20260505063943 62 94 2.0 8.0 0.00 0.00 0.00 88 1014.4
20260505063431 62 65 3.0 8.0 0.00 0.00 0.00 88 1014.3
20260505063004 62 97 2.0 6.0 0.00 0.00 0.00 88 1014.2
20260505062440 62 79 2.0 7.0 0.00 0.00 0.00 89 1014.2
20260505061956 62 83 1.0 7.0 0.00 0.00 0.00 89 1014.2
20260505061506 61 57 1.0 6.0 0.00 0.00 0.00 89 1014.2
20260505060934 61 65 3.0 6.0 0.00 0.00 0.00 89 1014.2
20260505060516 61 44 2.0 5.0 0.00 0.00 0.00 90 1014.2
20260505055942 61 37 2.0 5.0 0.00 0.00 0.00 90 1014.2
20260505055431 61 76 0.0 4.0 0.00 0.00 0.00 90 1014.2
20260505054946 61 74 1.0 4.0 0.00 0.00 0.00 90 1014.2
20260505054442 61 81 1.0 3.0 0.00 0.00 0.00 91 1014.2
20260505053933 61 42 1.0 5.0 0.00 0.00 0.00 91 1014.0
20260505053510 61 31 2.0 5.0 0.00 0.00 0.00 91 1013.9
20260505052944 61 74 3.0 6.0 0.00 0.00 0.00 92 1013.9
20260505052440 61 62 4.0 6.0 0.00 0.00 0.00 92 1014.0
20260505052015 61 64 1.0 4.0 0.00 0.00 0.00 92 1013.9
20260505051444 60 49 2.0 4.0 0.00 0.00 0.00 92 1013.9
20260505050937 60 85 1.0 3.0 0.00 0.00 0.00 92 1014.0
20260505050512 60 67 0.0 7.0 0.00 0.00 0.00 92 1014.0
20260505041440 59 360 1.0 6.0 0.00 0.00 0.00 92 1013.8
20260505040948 60 56 2.0 6.0 0.00 0.00 0.00 92 1013.8
20260505040503 59 26 0.0 6.0 0.00 0.00 0.00 92 1013.8
20260505035938 59 47 4.0 6.0 0.00 0.00 0.00 92 1013.8
20260505035447 59 40 2.0 5.0 0.00 0.00 0.00 92 1013.9
20260505034942 59 5 0.0 4.0 0.00 0.00 0.00 91 1013.9
20260505034430 59 5 2.0 5.0 0.00 0.00 0.00 91 1013.8
20260505033947 59 32 1.0 5.0 0.00 0.00 0.00 91 1013.8
20260505033437 59 29 1.0 4.0 0.00 0.00 0.00 91 1013.9
20260505032931 59 42 2.0 4.0 0.00 0.00 0.00 91 1013.9
20260505032508 59 30 0.0 3.0 0.00 0.00 0.00 90 1013.9
20260505031943 59 27 1.0 4.0 0.00 0.00 0.00 90 1013.8
20260505031431 59 65 1.0 4.0 0.00 0.00 0.00 89 1013.9
20260505030947 59 48 2.0 4.0 0.00 0.00 0.00 89 1013.9
20260505030438 59 19 1.0 4.0 0.00 0.00 0.00 88 1013.9
20260505025955 59 53 1.0 4.0 0.00 0.00 0.00 87 1013.9
20260505025450 59 19 1.0 4.0 0.00 0.00 0.00 86 1013.9
20260505024938 59 11 1.0 4.0 0.00 0.00 0.00 86 1014.0
20260505024434 59 22 1.0 4.0 0.00 0.00 0.00 86 1014.1
20260505024008 59 34 0.0 5.0 0.00 0.00 0.00 86 1014.2
20260505023435 59 34 2.0 5.0 0.00 0.00 0.00 86 1014.1
20260505022954 59 56 1.0 4.0 0.00 0.00 0.00 85 1014.2
20260505022448 59 56 1.0 4.0 0.00 0.00 0.00 85 1014.2
20260505021934 59 49 1.0 4.0 0.00 0.00 0.00 85 1014.2
20260505021431 59 38 1.0 5.0 0.00 0.00 0.00 85 1014.3
20260505020940 59 49 0.0 3.0 0.00 0.00 0.00 85 1014.4
20260505020456 59 41 0.0 2.0 0.00 0.00 0.00 85 1014.4
20260505015945 59 36 0.0 2.0 0.00 0.00 0.00 85 1014.5
20260505015442 59 36 0.0 4.0 0.00 0.00 0.00 85 1014.5
20260505014952 58 34 1.0 5.0 0.00 0.00 0.00 85 1014.5
20260505014507 58 32 0.0 4.0 0.00 0.00 0.00 85 1014.6
20260505014016 58 32 1.0 4.0 0.00 0.00 0.00 85 1014.6
20260505013445 58 32 1.0 3.0 0.00 0.00 0.00 84 1014.6
20260505012937 58 32 0.0 4.0 0.00 0.00 0.00 84 1014.6
20260505012452 58 18 1.0 4.0 0.00 0.00 0.00 84 1014.7
20260505011951 58 23 1.0 3.0 0.00 0.00 0.00 84 1014.7
20260505011438 58 26 1.0 3.0 0.00 0.00 0.00 83 1014.7
20260505010953 59 31 0.0 4.0 0.00 0.00 0.00 83 1014.6
20260505010446 59 32 1.0 4.0 0.00 0.00 0.00 82 1014.7
20260505010017 59 36 1.0 4.0 0.00 0.00 0.00 82 1014.8
20260505005444 59 28 0.0 3.0 0.00 0.00 0.00 81 1014.8
20260505004936 59 49 1.0 3.0 0.00 0.00 0.00 80 1015.0
20260505004444 59 51 1.0 2.0 0.00 0.00 0.00 79 1015.1
20260505003936 59 52 0.0 2.0 0.00 0.00 0.00 79 1015.2
20260505003451 59 53 1.0 2.0 0.00 0.00 0.00 78 1015.3
20260505002937 59 54 0.0 2.0 0.00 0.00 0.00 79 1015.4
20260505002434 59 54 0.0 1.0 0.00 0.00 0.00 78 1015.4
20260505001938 59 54 0.0 2.0 0.00 0.00 0.00 78 1015.4
20260505001434 59 54 0.0 2.0 0.00 0.00 0.00 78 1015.4
20260505000948 59 54 0.0 2.0 0.00 0.00 0.00 78 1015.4
20260505000435 59 54 0.0 2.0 0.00 0.00 0.00 77 1015.5
20260504235948 59 51 0.0 2.0 0.00 0.00 0.00 77 1015.5
20260504235446 59 51 0.0 2.0 0.00 0.00 0.00 76 1015.5
20260504234931 60 51 0.0 1.0 0.00 0.00 0.00 76 1015.5
20260504234446 60 51 0.0 0.0 0.00 0.00 0.00 76 1015.6
20260504233934 60 51 0.0 0.0 0.00 0.00 0.00 75 1015.7
20260504233430 60 52 0.0 2.0 0.00 0.00 0.00 75 1015.8
20260504233002 60 51 0.0 2.0 0.00 0.00 0.00 75 1015.8
20260504232431 60 51 0.0 2.0 0.00 0.00 0.00 75 1015.9
20260504231945 60 49 0.0 2.0 0.00 0.00 0.00 75 1015.9
20260504231500 60 49 1.0 2.0 0.00 0.00 0.00 74 1015.9
20260504230956 60 49 0.0 2.0 0.00 0.00 0.00 74 1015.9
20260504230445 60 49 0.0 1.0 0.00 0.00 0.00 74 1016.0
20260504225940 60 49 0.0 3.0 0.00 0.00 0.00 73 1016.0
20260504225456 60 49 1.0 3.0 0.00 0.00 0.00 73 1016.0
20260504224950 60 49 0.0 5.0 0.00 0.00 0.00 73 1016.0
20260504224437 60 47 1.0 5.0 0.00 0.00 0.00 72 1016.0
20260504223952 61 46 3.0 4.0 0.00 0.00 0.00 72 1016.0
20260504223440 61 34 1.0 3.0 0.00 0.00 0.00 72 1016.1
20260504222935 61 31 0.0 3.0 0.00 0.00 0.00 71 1016.2
20260504222442 61 31 1.0 3.0 0.00 0.00 0.00 71 1016.2
20260504221938 61 28 1.0 3.0 0.00 0.00 0.00 71 1016.2
20260504221435 61 28 1.0 2.0 0.00 0.00 0.00 71 1016.3
20260504220943 61 28 1.0 3.0 0.00 0.00 0.00 70 1016.3
20260504220439 61 28 0.0 2.0 0.00 0.00 0.00 70 1016.3
20260504215934 62 28 0.0 2.0 0.00 0.00 0.00 69 1016.2
20260504215447 62 28 1.0 2.0 0.00 0.00 0.00 69 1016.3
20260504214936 62 28 0.0 2.0 0.00 0.00 0.00 68 1016.2
20260504214449 62 28 0.0 3.0 0.00 0.00 0.00 68 1016.3
20260504213943 62 28 0.0 3.0 0.00 0.00 0.00 68 1016.3
20260504213431 63 30 0.0 2.0 0.00 0.00 0.00 67 1016.3
20260504213007 63 31 0.0 3.0 0.00 0.00 0.00 66 1016.4
20260504212442 63 32 1.0 3.0 0.00 0.00 0.00 65 1016.4
20260504211931 64 32 0.0 5.0 0.00 0.00 0.00 65 1016.5
20260504211445 64 32 0.0 5.0 0.00 0.00 0.00 63 1016.4
20260504210933 65 22 1.0 3.0 0.00 0.00 0.00 62 1016.4
20260504210429 65 159 1.0 2.0 0.00 0.00 0.00 61 1016.4
20260504205946 66 160 1.0 2.0 0.00 0.00 0.00 61 1016.3
20260504205433 66 161 0.0 0.0 0.00 0.00 0.00 59 1016.2
20260504205008 66 161 0.0 0.0 0.00 0.00 0.00 59 1016.2
20260504204442 66 161 0.0 0.0 0.00 0.00 0.00 59 1016.2
20260504203932 66 161 0.0 1.0 0.00 0.00 0.00 59 1016.1
20260504203447 67 161 0.0 1.0 0.00 0.00 0.00 58 1016.1
20260504202942 67 161 0.0 1.0 0.00 0.00 0.00 58 1016.1
20260504202431 67 161 0.0 1.0 0.00 0.00 0.00 58 1016.1
20260504201946 67 161 0.0 0.0 0.00 0.00 0.00 57 1016.1
20260504201434 67 161 0.0 0.0 0.00 0.00 0.00 57 1016.1
20260504200948 67 161 0.0 0.0 0.00 0.00 0.00 56 1016.0
20260504200505 68 161 0.0 2.0 0.00 0.00 0.00 57 1016.0
20260504195931 68 161 0.0 3.0 0.00 0.00 0.00 57 1015.9
20260504195450 68 161 1.0 3.0 0.00 0.00 0.00 57 1015.9
20260504194938 68 162 0.0 5.0 0.00 0.00 0.00 56 1015.9
20260504194453 68 169 2.0 7.0 0.00 0.00 0.00 56 1015.9
20260504193942 68 183 2.0 7.0 0.00 0.00 0.00 56 1015.8
20260504193437 68 198 2.0 6.0 0.00 0.00 0.00 56 1015.8
20260504193013 69 173 2.0 9.0 0.00 0.00 0.00 55 1015.8
20260504192440 69 153 2.0 10.0 0.00 0.00 0.00 55 1015.8
20260504191936 69 178 2.0 8.0 0.00 0.00 0.00 55 1015.8
20260504191444 69 195 3.0 8.0 0.00 0.00 0.00 55 1015.8
20260504190940 69 175 1.0 7.0 0.00 0.00 0.00 55 1015.7
20260504190455 70 134 2.0 6.0 0.00 0.00 0.00 54 1015.6
20260504185944 70 164 1.0 6.0 0.00 0.00 0.00 54 1015.6
20260504185441 70 127 4.0 6.0 0.00 0.00 0.00 53 1015.6
20260504185015 70 167 3.0 8.0 0.00 0.00 0.00 53 1015.5
20260504184447 71 146 2.0 9.0 0.00 0.00 0.00 52 1015.5
20260504183937 71 201 4.0 11.0 0.00 0.00 0.00 51 1015.4
20260504183452 71 140 3.0 11.0 0.00 0.00 0.00 51 1015.4
20260504182943 72 184 5.0 14.0 0.00 0.00 0.00 50 1015.4
20260504182459 72 142 5.0 14.0 0.00 0.00 0.00 49 1015.4
20260504181953 73 186 5.0 15.0 0.00 0.00 0.00 48 1015.4
20260504181443 74 171 5.0 15.0 0.00 0.00 0.00 48 1015.3
20260504180934 75 171 5.0 10.0 0.00 0.00 0.00 46 1015.3
20260504180451 75 187 5.0 10.0 0.00 0.00 0.00 39 1015.2
20260504175947 76 168 3.0 8.0 0.00 0.00 0.00 39 1015.2
20260504175436 76 136 2.0 8.0 0.00 0.00 0.00 39 1015.0
20260504174953 76 173 3.0 9.0 0.00 0.00 0.00 39 1015.0
20260504174445 76 182 4.0 9.0 0.00 0.00 0.00 39 1015.0
20260504173936 77 190 5.0 9.0 0.00 0.00 0.00 38 1015.0
20260504173447 77 195 5.0 9.0 0.00 0.00 0.00 39 1015.0
20260504173001 78 173 3.0 9.0 0.00 0.00 0.00 39 1014.9
20260504172456 78 213 1.0 5.0 0.00 0.00 0.00 38 1014.9
20260504171945 78 236 2.0 5.0 0.00 0.00 0.00 40 1015.0
20260504171441 78 234 3.0 4.0 0.00 0.00 0.00 40 1014.9
20260504170950 77 94 0.0 3.0 0.00 0.00 0.00 42 1015.0
20260504170505 77 94 1.0 7.0 0.00 0.00 0.00 42 1014.9
20260504160433 78 78 3.0 8.0 0.00 0.00 0.00 44 1015.2
20260504150940 80 166 6.0 10.0 0.00 0.00 0.00 43 1015.4
20260504150449 81 157 4.0 10.0 0.00 0.00 0.00 43 1015.3
20260504140954 80 98 2.0 8.0 0.00 0.00 0.00 42 1015.8
20260504140452 80 129 2.0 8.0 0.00 0.00 0.00 42 1015.8